Tracking 34151 objects as of 20-May-2026
HD Live streaming from Space Station
objects crossing your sky now

CZ-6A DEB

Track CZ-6A DEB now!
10-day predictions


NORAD ID: 56241
Int'l Code: 2022-151ABH
Perigee: 634.1 km
Apogee: 750.8 km
Inclination: 98.8 °
Period: 98.5 minutes
Semi major axis: 7063 km
RCS: Unknown
Launch date: November 11, 2022
Source: People's Republic of China (PRC)
Launch site: Taiyaun Space Center, China (TSC)

Note: This is SATELLITE DEBRIS
Your satellite tracking list
Your tracking list is empty




NASA's NSSDC Master Catalog

Two Line Element Set (TLE):
1 56241U 22151ABH 26140.21278100  .00005327  00000-0  10120-2 0  9996
2 56241  98.8236 231.4448 0082615  45.7048 315.0889 14.62449877174123
Source of the keplerian elements: AFSPC